Temp
72 76 83 83 83 83 83 84 83 84 83 83 83 83 83 84 84 84 84 84 84 84 84 84 84 84 84 83 83 83 83 83 83 84 84 84 83 82 83 83 82 84 82
75 78 82 83 83 83 83 83 83 83 83 83 83 83 83 84 84 84 84 84 84 84 84 84 84 84 83 83 83 84 83 83 83 83 84 84 84 83 83 83 83 83 82
76 79 81 82 83 83 83 83 83 83 84 84 83 84 84 84 84 84 84 84 84 84 84 84 84 83 83 83 83 83 83 83 83 83 84 81 82 83 83 83 83 82 83
77 77 79 82 83 83 83 83 83 83 83 83 83 84 84 84 84 84 84 83 84 84 84 84 84 83 83 83 83 83 83 83 83 83 78 80 84 84 84 83 83 82 82
75 76 79 83 83 83 83 83 83 83 83 83 84 84 84 84 83 84 84 84 84 82 83 84 84 83 83 83 83 82 82 82 82 79 76 76 78 84 84 83 83 82 82
75 77 82 83 84 83 83 83 83 83 83 83 83 84 84 84 84 84 84 83 84 84 83 84 84 83 83 83 83 83 82 82 82 78 76 77 78 81 83 84 83 83 82
74 76 80 83 83 83 83 83 83 83 83 83 84 84 84 84 84 84 84 84 84 84 84 84 84 84 83 83 83 83 82 82 77 77 76 76 77 79 83 83 83 82 82
75 76 78 82 83 83 83 83 83 83 83 83 84 84 84 84 84 84 84 84 84 84 84 84 84 84 84 84 84 83 83 83 80 77 77 76 77 79 83 83 82 82 82
77 76 76 78 82 83 83 83 83 83 83 84 84 83 84 84 84 84 84 83 84 84 83 84 84 84 84 84 84 83 83 83 76 76 78 76 78 80 83 83 83 82 82
74 75 74 75 77 78 80 83 83 83 84 84 84 84 83 84 84 84 83 82 83 83 83 83 84 84 83 83 83 83 83 82 76 77 77 77 79 82 83 82 82 82 82
74 73 74 74 74 75 76 80 83 83 84 84 84 84 83 79 80 82 82 82 84 84 84 84 84 82 81 82 81 81 82 75 76 76 77 79 80 82 83 82 82 82 81
73 72 73 73 73 74 80 77 77 78 79 78 78 78 77 77 77 81 81 83 83 84 84 84 84 83 82 77 77 79 74 75 75 75 76 80 81 82 83 82 82 82 81
72 74 73 72 73 73 77 74 75 75 75 76 76 75 76 77 76 78 77 78 77 80 79 82 82 80 79 76 74 74 74 75 74 74 77 79 80 82 82 82 82 81 82
71 73 74 73 72 72 73 73 74 74 74 74 75 74 74 75 75 75 75 76 75 76 77 77 79 78 77 76 75 74 74 74 73 74 74 79 80 81 82 82 81 81 82
72 73 74 74 72 73 72 73 73 73 74 74 74 74 74 74 74 75 75 76 76 76 76 75 76 76 76 76 75 75 75 75 75 75 73 79 80 81 82 83 82 82 82
74 73 75 74 74 73 72 72 73 73 74 73 73 74 74 74 74 75 75 75 75 75 75 75 75 75 75 74 74 75 75 75 76 75 75 74 79 80 81 82 82 82 82
75 76 75 75 75 73 73 72 73 74 75 73 73 73 74 74 73 74 75 75 76 76 75 75 75 74 73 74 73 75 75 76 76 76 76 75 76 79 80 81 82 82 82
77 75 76 79 77 74 75 74 74 74 75 75 74 74 75 75 74 74 75 75 76 76 75 75 73 73 72 72 72 73 74 75 76 76 77 77 77 77 79 80 80 81 81
78 76 76 77 77 75 75 75 74 75 75 76 75 75 75 76 76 75 76 77 76 75 75 74 73 73 72 73 74 74 73 74 75 77 76 76 76 77 76 77 79 80 81
80 78 77 77 77 75 75 74 73 73 75 76 76 77 76 76 76 75 76 75 75 73 73 73 73 73 72 74 77 77 73 73 73 74 73 77 76 76 77 77 77 79 80
80 78 77 76 76 75 74 73 72 73 74 75 77 77 77 77 76 75 76 74 74 73 73 73 72 72 70 72 71 73 72 73 72 72 73 74 74 75 75 76 75 75 76
78 78 76 75 76 76 77 77 77 76 76 76 77 78 78 77 77 76 74 74 74 73 72 72 71 69 70 70 69 68 66 70 71 74 74 74 74 73 74 74 74 74 75
77 77 76 75 74 77 78 77 71 72 71 72 71 74 76 77 77 75 74 73 73 73 72 72 71 70 68 69 70 67 62 63 65 70 71 73 73 72 73 73 73 73 74
80 79 78 77 74 76 77 75 74 75 72 77 77 76 75 75 76 75 75 74 74 72 72 72 72 71 69 67 68 68 68 67 64 65 69 69 71 72 72 73 72 72 71
79 78 78 76 74 75 76 77 75 74 75 72 72 71 72 72 74 74 74 74 73 72 72 70 70 71 71 67 66 66 66 66 66 64 63 65 68 70 71 72 73 73 72
77 77 75 73 73 74 75 74 75 72 70 67 67 67 68 70 72 73 74 73 73 72 71 70 70 70 69 67 67 66 66 66 65 65 63 63 66 68 71 72 70 70 71
MSLP
1014.43 1014.45 1014.63 1015.00 1015.38 1015.65 1015.82 1015.88 1016.09 1016.15 1016.33 1016.40 1016.52 1016.64 1016.83 1017.24 1017.36 1017.51 1017.62 1017.78 1017.89 1017.92 1017.92 1017.89 1017.94 1018.01 1018.15 1018.22 1018.12 1018.02 1017.81 1017.81 1018.01 1018.14 1018.32 1018.71 1018.86 1019.01 1019.22 1019.46 1019.73 1019.82 1019.94
1013.72 1014.29 1014.55 1015.02 1015.38 1015.69 1015.89 1016.16 1016.37 1016.46 1016.60 1016.68 1016.79 1016.88 1017.11 1017.33 1017.51 1017.64 1017.71 1017.93 1018.01 1018.01 1018.03 1017.98 1017.94 1018.04 1018.17 1018.37 1018.39 1018.29 1018.20 1018.06 1018.05 1018.31 1018.61 1018.69 1018.83 1019.04 1019.35 1019.62 1019.82 1019.97 1020.16
1014.00 1014.24 1014.60 1015.08 1015.46 1015.75 1016.06 1016.32 1016.49 1016.70 1016.80 1016.84 1016.92 1017.06 1017.21 1017.44 1017.62 1017.76 1017.84 1018.06 1018.09 1018.13 1018.11 1018.05 1018.09 1018.14 1018.19 1018.26 1018.36 1018.37 1018.41 1018.39 1018.32 1018.45 1018.69 1018.96 1019.03 1019.05 1019.17 1019.61 1019.92 1020.11 1020.35
1014.03 1014.41 1014.76 1015.19 1015.54 1015.84 1016.13 1016.35 1016.57 1016.84 1016.97 1016.99 1017.10 1017.14 1017.29 1017.50 1017.68 1017.86 1017.97 1018.21 1018.19 1018.27 1018.26 1018.16 1018.17 1018.22 1018.38 1018.41 1018.41 1018.35 1018.36 1018.42 1018.51 1018.64 1019.06 1019.06 1019.14 1019.17 1019.11 1019.33 1019.80 1020.19 1020.43
1014.53 1014.85 1015.05 1015.33 1015.68 1015.97 1016.16 1016.39 1016.63 1016.85 1017.02 1017.14 1017.19 1017.24 1017.39 1017.56 1017.64 1017.95 1018.07 1018.19 1018.24 1018.35 1018.33 1018.22 1018.24 1018.32 1018.42 1018.44 1018.44 1018.49 1018.48 1018.51 1018.61 1018.88 1019.23 1019.22 1019.19 1019.28 1019.29 1019.39 1019.72 1020.06 1020.48
1014.82 1015.08 1015.20 1015.51 1015.78 1016.03 1016.22 1016.43 1016.65 1016.88 1017.02 1017.21 1017.28 1017.31 1017.43 1017.59 1017.78 1018.01 1018.11 1018.21 1018.30 1018.28 1018.25 1018.22 1018.35 1018.38 1018.36 1018.36 1018.40 1018.50 1018.57 1018.62 1018.68 1019.06 1019.27 1019.20 1019.12 1019.27 1019.34 1019.66 1019.96 1020.22 1020.63
1014.91 1015.05 1015.15 1015.36 1015.66 1015.98 1016.30 1016.48 1016.60 1016.88 1017.12 1017.23 1017.27 1017.33 1017.46 1017.64 1017.92 1018.00 1018.12 1018.23 1018.30 1018.33 1018.30 1018.25 1018.31 1018.37 1018.46 1018.44 1018.43 1018.52 1018.66 1018.75 1018.97 1019.16 1019.35 1019.42 1019.21 1019.44 1019.64 1019.75 1020.13 1020.45 1020.64
1014.75 1015.00 1015.15 1015.34 1015.61 1015.92 1016.21 1016.40 1016.60 1016.85 1017.01 1017.19 1017.22 1017.39 1017.51 1017.72 1018.01 1018.19 1018.16 1018.26 1018.31 1018.34 1018.32 1018.33 1018.34 1018.42 1018.52 1018.55 1018.57 1018.57 1018.60 1018.73 1019.01 1019.16 1019.30 1019.37 1019.39 1019.57 1019.69 1020.02 1020.20 1020.41 1020.56
1014.72 1015.08 1015.30 1015.37 1015.56 1015.83 1016.16 1016.40 1016.67 1016.80 1016.97 1017.11 1017.19 1017.42 1017.59 1017.81 1018.12 1018.15 1018.21 1018.27 1018.40 1018.48 1018.48 1018.56 1018.57 1018.59 1018.65 1018.62 1018.65 1018.69 1018.77 1018.74 1018.98 1019.06 1019.20 1019.41 1019.44 1019.56 1019.72 1020.00 1020.35 1020.53 1020.66
1015.10 1015.21 1015.44 1015.56 1015.65 1015.82 1016.01 1016.25 1016.49 1016.74 1016.98 1017.23 1017.33 1017.53 1017.68 1017.86 1018.15 1018.21 1018.30 1018.50 1018.53 1018.59 1018.55 1018.53 1018.55 1018.52 1018.60 1018.74 1018.75 1018.80 1018.87 1019.03 1019.29 1019.15 1019.13 1019.23 1019.29 1019.47 1019.64 1019.92 1020.25 1020.58 1020.82
1015.43 1015.51 1015.50 1015.72 1015.87 1016.01 1016.21 1016.34 1016.50 1016.72 1016.96 1017.19 1017.26 1017.37 1017.64 1017.96 1018.20 1018.30 1018.35 1018.44 1018.45 1018.46 1018.52 1018.49 1018.42 1018.43 1018.50 1018.86 1018.81 1018.92 1019.08 1019.36 1019.51 1019.49 1019.19 1019.11 1019.15 1019.31 1019.43 1019.62 1020.02 1020.38 1020.84
1015.35 1015.48 1015.59 1015.75 1016.00 1016.19 1016.22 1016.35 1016.55 1016.86 1017.11 1017.26 1017.36 1017.47 1017.69 1017.96 1018.17 1018.34 1018.42 1018.44 1018.43 1018.39 1018.39 1018.41 1018.27 1018.31 1018.49 1018.99 1019.33 1019.17 1019.47 1019.62 1019.72 1019.74 1019.53 1019.25 1019.12 1019.24 1019.45 1019.70 1019.88 1020.10 1020.43
1015.14 1015.54 1015.74 1015.90 1015.99 1016.11 1016.07 1016.34 1016.57 1016.84 1017.14 1017.40 1017.54 1017.66 1017.78 1017.90 1018.14 1018.31 1018.45 1018.54 1018.43 1018.40 1018.37 1018.32 1018.19 1018.32 1018.47 1019.03 1019.51 1019.46 1019.50 1019.56 1019.65 1019.74 1019.69 1019.60 1019.31 1019.18 1019.27 1019.62 1019.88 1020.08 1020.24
1014.97 1015.28 1015.54 1015.72 1016.08 1016.29 1016.37 1016.47 1016.58 1016.80 1017.11 1017.31 1017.36 1017.51 1017.79 1017.90 1018.06 1018.22 1018.38 1018.40 1018.48 1018.43 1018.50 1018.44 1018.14 1018.21 1018.46 1018.84 1019.27 1019.43 1019.44 1019.46 1019.64 1019.60 1019.46 1019.30 1019.22 1019.11 1019.12 1019.23 1019.61 1019.92 1020.16
1014.66 1014.96 1015.20 1015.61 1016.04 1016.22 1016.43 1016.43 1016.54 1016.68 1016.87 1017.07 1017.38 1017.55 1017.67 1017.76 1017.86 1018.04 1018.14 1018.33 1018.36 1018.42 1018.35 1018.35 1018.21 1018.04 1018.42 1018.55 1018.90 1019.08 1019.29 1019.34 1019.37 1019.46 1019.56 1019.26 1018.87 1018.91 1019.10 1019.22 1019.43 1019.69 1019.99
1014.31 1014.56 1015.02 1015.35 1015.46 1015.82 1016.18 1016.29 1016.38 1016.54 1016.69 1017.04 1017.21 1017.22 1017.40 1017.66 1017.74 1017.82 1017.82 1017.95 1018.13 1018.25 1018.30 1018.32 1018.31 1018.20 1018.19 1018.62 1018.82 1018.81 1018.98 1019.04 1019.14 1019.18 1019.20 1019.12 1018.91 1018.77 1018.87 1018.99 1019.18 1019.43 1019.67
1013.64 1014.09 1014.53 1014.99 1015.24 1015.58 1015.77 1015.93 1016.16 1016.26 1016.41 1016.63 1016.87 1017.09 1017.14 1017.23 1017.43 1017.56 1017.58 1017.50 1017.49 1017.78 1017.91 1017.94 1018.20 1018.16 1018.26 1018.43 1018.84 1018.72 1018.66 1018.78 1018.97 1019.07 1019.06 1019.01 1018.89 1018.78 1018.87 1018.91 1018.99 1019.08 1019.24
1013.36 1013.79 1014.20 1014.66 1015.07 1015.41 1015.38 1015.60 1015.87 1015.97 1016.08 1016.23 1016.34 1016.53 1016.71 1016.82 1016.95 1017.26 1017.39 1017.29 1017.32 1017.38 1017.52 1017.63 1017.94 1018.20 1018.20 1018.37 1018.50 1018.86 1018.71 1018.61 1018.64 1018.62 1018.46 1018.56 1018.61 1018.67 1018.67 1018.65 1018.81 1018.95 1018.98
1012.58 1013.19 1013.69 1014.07 1014.40 1014.77 1015.15 1015.12 1015.43 1015.57 1015.68 1015.64 1015.89 1016.09 1016.27 1016.46 1016.65 1016.83 1016.96 1016.74 1016.90 1017.19 1017.35 1017.53 1017.69 1017.88 1018.15 1018.20 1018.32 1018.35 1018.43 1018.45 1018.34 1018.20 1018.26 1018.07 1018.05 1018.20 1018.34 1018.46 1018.55 1018.61 1018.58
1011.92 1012.51 1013.04 1013.49 1013.77 1014.27 1014.85 1015.19 1015.25 1015.45 1015.32 1015.29 1015.35 1015.54 1015.62 1015.87 1016.16 1016.44 1016.53 1016.54 1016.62 1017.00 1017.26 1017.53 1017.63 1017.76 1017.97 1018.16 1018.25 1018.18 1018.17 1018.16 1018.03 1018.01 1017.97 1017.84 1017.75 1017.88 1018.06 1018.28 1018.42 1018.35 1018.25
1011.47 1011.95 1012.30 1012.85 1013.37 1014.06 1014.37 1014.72 1015.06 1014.90 1014.93 1015.00 1014.79 1014.80 1015.05 1015.19 1015.38 1015.79 1016.02 1016.18 1016.38 1016.72 1016.79 1017.07 1017.42 1017.75 1017.96 1018.08 1018.34 1018.30 1018.15 1018.03 1018.04 1018.07 1017.89 1017.74 1017.87 1017.92 1018.05 1018.16 1018.30 1018.31 1018.22
1010.44 1010.93 1011.48 1012.01 1012.34 1012.82 1013.26 1013.54 1013.96 1014.14 1014.21 1014.09 1014.06 1014.12 1014.24 1014.49 1014.64 1015.00 1015.38 1015.74 1016.08 1016.48 1016.65 1016.99 1017.18 1017.64 1017.75 1017.97 1018.15 1018.61 1018.53 1018.24 1017.99 1018.10 1018.18 1018.21 1018.20 1018.10 1018.13 1018.06 1018.11 1018.25 1018.29
1009.52 1009.80 1010.38 1010.82 1011.19 1011.53 1012.09 1012.97 1013.55 1013.83 1013.94 1014.02 1013.98 1013.91 1013.82 1013.90 1014.09 1014.37 1014.63 1015.09 1015.52 1015.83 1015.95 1016.17 1016.52 1017.08 1017.53 1017.93 1017.80 1018.10 1018.75 1018.58 1018.41 1018.07 1017.98 1018.17 1018.35 1018.22 1018.19 1018.32 1018.34 1018.22 1018.14
1008.32 1008.93 1009.35 1009.73 1010.27 1010.59 1011.29 1011.93 1012.32 1012.46 1012.78 1012.52 1012.69 1013.12 1013.11 1013.13 1013.34 1013.65 1013.98 1014.36 1014.82 1015.18 1015.52 1015.71 1015.96 1016.28 1016.99 1017.53 1018.01 1017.96 1018.06 1018.11 1018.29 1018.43 1018.28 1018.14 1018.34 1018.34 1018.37 1018.33 1018.62 1018.50 1018.28
1008.17 1008.44 1008.75 1009.03 1009.54 1009.98 1010.52 1010.69 1011.35 1011.87 1011.82 1012.15 1012.62 1012.95 1013.07 1013.06 1013.11 1013.07 1013.08 1013.39 1014.03 1014.50 1014.77 1015.16 1015.62 1016.05 1016.32 1016.95 1017.19 1017.76 1018.07 1018.21 1018.02 1018.15 1018.27 1018.31 1018.40 1018.48 1018.40 1018.44 1018.71 1018.78 1018.49
1007.68 1008.06 1008.39 1008.69 1008.91 1009.60 1010.00 1010.38 1010.62 1011.23 1011.66 1012.23 1012.58 1013.16 1013.39 1013.18 1013.18 1013.26 1013.27 1013.58 1013.63 1013.91 1014.29 1014.48 1014.80 1015.43 1015.95 1016.26 1016.63 1016.79 1017.23 1017.78 1017.77 1017.88 1018.19 1018.28 1018.23 1018.34 1018.36 1018.53 1018.69 1018.93 1018.88
Wind_Speed
5 6 16 16 15 16 16 17 16 15 16 16 17 17 16 15 15 15 13 11 8 6 6 6 6 6 6 4 2 1 3 3 4 5 6 9 12 12 11 12 13 11 13
11 7 17 16 15 16 16 17 17 15 14 14 15 15 15 14 14 14 12 10 8 7 6 5 5 5 5 6 6 4 2 1 1 1 3 6 10 12 10 11 11 11 12
13 9 11 17 16 16 16 16 16 15 16 15 14 14 15 13 13 13 12 11 9 9 8 8 7 6 6 5 6 6 5 3 4 3 5 4 4 11 13 11 11 10 13
11 7 8 16 15 16 15 15 15 15 14 14 14 14 14 13 13 12 11 11 10 9 8 9 10 8 7 6 6 6 8 7 6 3 2 4 5 7 13 14 11 10 11
8 6 8 16 15 15 15 14 14 14 14 14 14 13 13 13 13 13 11 11 11 8 10 10 11 10 8 8 7 8 8 7 7 4 1 2 3 8 10 14 13 12 11
8 7 12 16 16 15 14 14 13 12 12 13 13 12 12 12 11 12 11 12 11 11 11 10 10 10 10 10 10 11 10 8 7 3 1 2 3 7 10 13 13 13 11
8 6 10 17 16 16 16 15 14 13 13 13 13 13 12 11 13 12 13 12 11 11 11 11 11 11 10 11 11 10 11 11 6 4 4 3 3 4 8 12 12 12 12
11 6 7 17 16 16 16 15 14 13 14 14 13 13 13 12 11 11 11 11 11 11 10 10 10 10 10 10 10 11 11 12 8 6 6 3 4 6 10 6 9 11 11
8 6 5 7 14 18 16 15 14 14 14 14 13 12 12 11 10 11 11 11 10 9 9 8 9 8 9 10 10 10 9 10 6 4 7 4 6 10 11 10 10 11 11
5 5 5 5 5 6 9 16 15 14 14 13 13 13 11 12 11 11 9 8 9 9 9 9 9 9 8 8 9 10 8 8 3 6 5 5 12 13 14 10 11 11 11
5 5 5 4 4 5 5 7 12 14 14 14 13 14 11 3 4 6 6 8 10 10 10 10 10 10 7 5 4 5 5 2 3 3 3 11 15 15 15 14 14 13 12
12 8 7 6 5 5 5 5 5 4 3 3 4 4 3 4 3 5 6 10 10 11 11 11 12 10 6 1 1 1 1 3 2 3 2 8 13 15 15 13 13 14 14
9 7 6 5 5 6 6 3 2 2 2 3 4 4 3 3 2 2 2 2 2 8 3 5 6 3 4 3 1 2 3 3 3 3 4 8 12 16 16 13 13 13 14
10 10 9 7 6 5 2 3 3 3 2 3 4 5 3 2 3 3 3 3 3 3 4 4 4 4 5 4 4 4 4 3 3 4 5 11 13 15 16 16 14 14 14
11 12 11 10 8 7 4 3 3 5 4 4 3 4 3 4 4 3 3 3 3 2 4 4 5 5 4 4 2 3 4 4 4 3 2 8 4 15 15 16 16 15 14
10 12 10 12 11 9 8 6 6 4 4 3 4 5 6 4 4 4 4 4 3 4 4 4 4 5 4 3 4 5 5 5 5 5 4 4 7 6 13 15 14 16 16
10 11 13 12 11 11 11 7 6 6 6 6 6 6 7 6 5 5 4 5 5 4 6 4 4 4 4 2 4 5 4 5 4 4 3 2 3 8 9 11 11 13 15
11 12 12 11 12 11 11 8 7 7 7 7 6 6 9 8 7 5 5 6 3 3 3 3 3 3 4 3 2 2 3 3 4 5 4 3 3 3 5 9 11 13 14
14 13 13 13 14 14 11 8 8 7 7 7 6 6 8 9 9 8 6 7 4 3 4 3 3 3 3 4 5 2 2 2 3 3 5 4 4 5 4 8 12 13 16
13 13 13 12 14 13 8 5 4 4 6 5 7 7 10 8 9 8 6 7 4 3 4 4 4 3 2 3 4 2 2 3 3 3 4 4 3 2 2 3 4 5 11
12 13 15 15 13 9 9 8 7 9 8 7 8 11 10 9 10 9 7 6 5 6 7 7 3 5 3 3 2 1 2 3 2 2 3 3 3 3 2 1 1 2 3
16 17 15 15 15 13 11 10 7 7 8 9 9 11 12 10 10 9 9 8 7 6 5 7 5 2 2 4 3 2 1 3 1 0 0 0 1 1 2 3 3 3 4
15 18 17 18 18 16 16 8 2 2 1 2 4 7 10 11 10 10 9 9 8 7 7 9 9 8 6 4 2 4 2 4 1 1 0 0 0 1 3 4 4 4 2
16 14 17 18 18 16 16 12 15 13 12 11 10 8 8 10 12 9 10 10 10 7 8 8 8 8 5 5 2 3 1 2 3 1 1 0 0 0 2 3 3 2 3
9 13 14 15 15 15 16 17 13 13 10 3 3 5 9 6 8 10 11 10 10 8 10 9 7 9 6 5 3 3 2 1 1 2 2 2 1 2 2 2 1 1 3
7 9 10 13 14 13 14 15 16 16 9 5 4 4 5 5 5 5 4 7 9 9 10 10 10 7 6 4 4 3 4 3 3 3 2 2 2 2 3 3 2 2 2
Wind_Direction
177 159 147 143 141 137 134 126 121 116 119 127 133 131 135 147 155 152 156 153 155 143 131 130 131 127 131 134 117 28 6 359 55 58 65 99 111 107 106 106 112 114 109
142 155 148 146 147 143 138 133 129 126 130 129 128 132 140 150 155 155 157 159 165 162 161 147 142 127 119 119 122 157 188 259 350 72 127 122 125 125 125 115 117 121 122
139 147 149 147 152 148 144 140 136 140 141 138 139 139 144 154 163 161 162 163 168 167 168 161 143 123 121 116 111 143 166 194 213 194 151 118 139 142 136 131 134 131 136
133 134 149 152 154 149 145 145 146 151 150 146 146 147 152 160 166 164 163 164 172 171 155 155 147 149 139 139 140 156 166 181 196 161 93 134 164 163 145 141 145 145 136
115 118 156 155 153 150 149 154 156 157 157 156 155 153 160 168 167 163 163 163 169 160 155 156 156 153 157 161 156 154 162 163 160 137 147 118 126 149 146 144 153 156 143
119 130 159 158 154 153 158 157 153 157 156 158 156 159 164 166 159 153 156 163 163 160 159 166 164 165 169 175 167 163 160 168 171 151 196 206 167 179 151 158 162 161 154
136 150 155 161 162 161 162 160 162 165 169 164 163 166 170 177 166 161 162 158 163 162 167 174 174 177 182 188 185 174 169 165 155 161 170 222 195 227 180 172 168 164 159
147 156 164 164 165 166 169 170 169 176 169 171 173 175 172 180 172 173 174 166 168 171 177 184 188 189 193 197 194 188 182 174 172 178 189 192 205 215 191 189 175 169 164
143 142 157 163 171 173 180 179 181 182 177 177 178 179 177 183 181 181 186 179 181 186 197 205 208 209 210 202 200 199 203 188 169 179 173 178 209 193 191 189 187 181 181
127 136 153 158 163 175 184 184 185 182 186 182 185 184 192 186 188 198 197 199 197 200 208 220 226 227 217 223 219 212 208 207 197 182 172 178 184 187 187 181 190 190 190
152 159 160 166 169 166 169 185 188 188 186 187 190 191 195 183 201 210 205 218 214 218 225 232 237 239 228 239 238 220 176 108 228 234 181 188 179 186 187 185 191 192 202
179 184 174 170 182 175 187 200 170 201 173 188 194 214 175 186 201 200 224 227 234 230 231 234 244 250 240 185 52 208 121 198 217 243 238 196 182 188 190 189 192 196 200
176 184 185 178 183 178 195 182 168 171 162 168 194 209 213 197 218 233 230 254 273 256 251 251 253 242 216 174 211 283 186 184 195 225 242 234 212 197 191 195 198 203 204
177 185 184 179 181 193 208 185 176 182 184 194 201 200 197 212 219 232 218 227 225 254 267 255 261 237 231 184 188 216 224 215 227 232 213 225 227 206 198 189 197 208 213
180 187 191 182 187 197 204 182 187 202 201 194 195 218 204 207 222 231 236 228 247 230 242 252 264 271 224 245 186 207 212 225 232 223 218 246 251 203 202 197 201 206 216
186 192 189 193 192 193 200 196 200 199 209 203 205 209 208 211 220 226 251 248 233 215 226 233 254 267 262 184 210 228 233 229 234 221 227 246 241 196 201 202 205 210 215
198 185 192 195 198 198 203 198 199 208 207 211 213 209 221 216 223 223 242 252 244 206 232 233 213 251 261 219 209 243 230 222 215 234 239 245 255 227 216 220 223 220 218
191 192 189 197 201 207 204 198 205 207 208 218 215 205 211 216 213 219 239 250 208 239 216 224 189 211 243 231 222 222 257 256 245 240 248 256 260 235 233 232 237 234 226
196 189 193 194 201 202 211 199 202 208 212 215 213 213 217 217 217 217 230 246 191 201 214 212 208 196 205 241 256 237 196 250 286 300 302 297 253 223 212 246 253 237 230
195 192 197 199 202 199 203 209 201 201 222 219 217 219 214 216 212 211 226 235 198 191 211 201 202 192 228 237 256 304 341 344 334 325 323 326 332 216 208 250 262 262 245
196 193 197 195 201 187 198 198 210 214 217 222 221 224 224 213 209 206 220 219 192 199 207 198 162 188 211 177 142 282 310 321 314 350 342 7 24 49 76 78 334 316 286
192 197 195 198 197 197 202 208 213 210 225 221 225 231 224 220 212 206 208 217 200 203 192 182 167 168 209 191 147 85 305 317 294 311 351 36 63 27 42 43 16 318 272
194 195 194 195 199 201 204 196 114 74 98 186 227 226 225 223 223 214 203 203 208 204 202 191 186 175 192 207 188 143 133 225 334 344 60 125 23 50 25 15 6 360 302
210 199 198 198 202 205 194 196 201 208 212 218 217 221 216 211 220 219 215 208 206 202 206 201 187 189 144 186 200 205 183 172 182 260 285 267 221 252 67 31 360 22 57
199 199 198 201 205 205 201 203 203 214 216 203 189 213 227 227 218 214 213 206 212 204 207 203 193 197 188 168 169 163 205 230 127 152 225 231 182 197 159 159 186 47 78
196 197 196 200 211 204 206 208 208 215 209 193 204 237 256 238 230 222 199 226 232 217 211 204 205 207 205 183 172 185 154 175 197 174 160 213 203 189 177 162 156 140 124